map of ILP home
ILP - Airport
Location
City:  Île des Pins, New Caledonia
Near (Alt.):Isle of Pines
Name:Moué
ICAO:NWWE
IATA:ILP

Details
Type:Airport (Aerodrome, Airfield)
Latitude:22°35'20"S (-22.588888)
Longitude:167°27'21"E (167.455833)
Elevation:315 ft (96 m)
Variation:12.72°E (WMM2015 magnetic declination)
0.03° annual change
Runways:1
Longest:3608 × 76 ft (1100 × 23 m), paved

Time
Time Zone:UTC+11
Local Time:

Weather
TAF:NWWE 221700Z 2218/2318 08012KT 9999 SCT025

Related Locations
Nearby:
Farthest:GQPZ: 12444 mi / 20026 km
Zouérate (Zouératt) [Tazadit Airport], MR

Find:

   beyond  
but within

Other Information
Maps:
NOTAMs:
Links:
Sources:

  
  • flag of New Caledonia
  

Sectional Chart

Flight Planning
at skyvector.com

Satellite Image

Google Maps Satellite view

 

Copyright © 2004-2018 Karl L. Swartz. All rights reserved.
The Great Circle Mapper name and logo are trademarks of the Great Circle Mapper.
All other trademarks mentioned herein belong to their respective owners.
Please see credits for attibutions and further copyright information.

  Follow gcmap on Facebook Follow gcmap on Twitter Follow gcmap on Google+ GCmap on LinkedIn

hCard Microformat

Geo Microformat